| time (UTC) | temp F | wind direction | speed MPH | gust MPH | rain 1hr in | rain 24hr in | rain mn in | humidity % | barometer mb |
| 20260504041505 | 80 | 0 | 0.0 | 1.0 | 0.00 | 0.00 | 0.00 | ||
| 20260504041006 | 81 | 0 | 0.0 | 1.0 | 0.00 | 0.00 | 0.00 | ||
| 20260504040507 | 81 | 0 | 0.0 | 1.0 | 0.00 | 0.00 | 0.00 | ||
| 20260504040007 | 81 | 0 | 0.0 | 2.0 | 0.00 | 0.00 | 0.00 | ||
| 20260504035507 | 81 | 0 | 0.0 | 4.0 | 0.00 | 0.00 | 0.00 | ||
| 20260504035011 | 81 | 0 | 1.0 | 8.0 | 0.00 | 0.00 | 0.00 | ||
| 20260504034522 | 82 | 0 | 1.0 | 8.0 | 0.00 | 0.00 | 0.00 | ||
| 20260504034022 | 82 | 0 | 1.0 | 7.0 | 0.00 | 0.00 | 0.00 | ||
| 20260504033505 | 82 | 0 | 2.0 | 9.0 | 0.00 | 0.00 | 0.00 | ||
| 20260504033007 | 82 | 0 | 1.0 | 12.0 | 0.00 | 0.00 | 0.00 | ||
| 20260504032507 | 82 | 0 | 1.0 | 12.0 | 0.00 | 0.00 | 0.00 | ||
| 20260504032029 | 83 | 0 | 4.0 | 12.0 | 0.00 | 0.00 | 0.00 | ||
| 20260504031519 | 83 | 0 | 7.0 | 12.0 | 0.00 | 0.00 | 0.00 | ||
| 20260504031003 | 83 | 0 | 2.0 | 10.0 | 0.00 | 0.00 | 0.00 | ||
| 20260504030506 | 83 | 0 | 4.0 | 10.0 | 0.00 | 0.00 | 0.00 | ||
| 20260504030004 | 83 | 0 | 2.0 | 9.0 | 0.00 | 0.00 | 0.00 | ||
| 20260504025504 | 83 | 349 | 3.0 | 12.0 | 0.00 | 0.00 | 0.00 | ||
| 20260504025027 | 84 | 358 | 6.0 | 12.0 | 0.00 | 0.00 | 0.00 | ||
| 20260504024517 | 84 | 354 | 7.0 | 12.0 | 0.00 | 0.00 | 0.00 | ||
| 20260504024017 | 84 | 0 | 6.0 | 11.0 | 0.00 | 0.00 | 0.00 | ||
| 20260504023518 | 84 | 0 | 2.0 | 10.0 | 0.00 | 0.00 | 0.00 | ||
| 20260504022507 | 85 | 350 | 8.0 | 14.0 | 0.00 | 0.00 | 0.00 | ||
| 20260504022028 | 85 | 358 | 6.0 | 14.0 | 0.00 | 0.00 | 0.00 | ||
| 20260504021003 | 85 | 0 | 0.0 | 9.0 | 0.00 | 0.00 | 0.00 | ||
| 20260504020505 | 85 | 348 | 1.0 | 14.0 | 0.00 | 0.00 | 0.00 | ||
| 20260504015506 | 85 | 358 | 10.0 | 22.0 | 0.00 | 0.00 | 0.00 | ||
| 20260504015025 | 86 | 0 | 12.0 | 20.0 | 0.00 | 0.00 | 0.00 | ||
| 20260504014517 | 86 | 359 | 9.0 | 18.0 | 0.00 | 0.00 | 0.00 | ||
| 20260504013521 | 86 | 355 | 10.0 | 20.0 | 0.00 | 0.00 | 0.00 | ||
| 20260504012523 | 87 | 359 | 11.0 | 20.0 | 0.00 | 0.00 | 0.00 | ||
| 20260504012024 | 87 | 0 | 10.0 | 19.0 | 0.00 | 0.00 | 0.00 | ||
| 20260504011514 | 87 | 355 | 5.0 | 22.0 | 0.00 | 0.00 | 0.00 | ||
| 20260504011012 | 87 | 359 | 14.0 | 22.0 | 0.00 | 0.00 | 0.00 | ||
| 20260504010512 | 87 | 356 | 5.0 | 19.0 | 0.00 | 0.00 | 0.00 | ||
| 20260504010014 | 87 | 354 | 7.0 | 20.0 | 0.00 | 0.00 | 0.00 | ||
| 20260504005023 | 87 | 0 | 8.0 | 13.0 | 0.00 | 0.00 | 0.00 | ||
| 20260504004515 | 87 | 357 | 5.0 | 16.0 | 0.00 | 0.00 | 0.00 | ||
| 20260504004016 | 87 | 359 | 8.0 | 16.0 | 0.00 | 0.00 | 0.00 | ||
| 20260504003517 | 87 | 0 | 3.0 | 7.0 | 0.00 | 0.00 | 0.00 | ||
| 20260504002521 | 88 | 0 | 2.0 | 10.0 | 0.00 | 0.00 | 0.00 | ||
| 20260504002002 | 88 | 0 | 5.0 | 10.0 | 0.00 | 0.00 | 0.00 | ||
| 20260504000502 | 88 | 0 | 1.0 | 11.0 | 0.00 | 0.00 | 0.00 | ||
| 20260504000003 | 88 | 0 | 5.0 | 12.0 | 0.00 | 0.00 | 0.00 | ||
| 20260503235505 | 88 | 359 | 4.0 | 15.0 | 0.00 | 0.00 | 0.00 | ||
| 20260503235027 | 88 | 356 | 9.0 | 15.0 | 0.00 | 0.00 | 0.00 | ||
| 20260503234520 | 88 | 359 | 8.0 | 17.0 | 0.00 | 0.00 | 0.00 | ||
| 20260503234021 | 88 | 358 | 8.0 | 17.0 | 0.00 | 0.00 | 0.00 | ||
| 20260503233507 | 88 | 354 | 7.0 | 14.0 | 0.00 | 0.00 | 0.00 | ||
| 20260503232511 | 88 | 352 | 4.0 | 18.0 | 0.00 | 0.00 | 0.00 | ||
| 20260503232012 | 88 | 345 | 11.0 | 18.0 | 0.00 | 0.00 | 0.00 | ||
| 20260503231505 | 88 | 349 | 1.0 | 12.0 | 0.00 | 0.00 | 0.00 | ||
| 20260503230510 | 88 | 0 | 7.0 | 15.0 | 0.00 | 0.00 | 0.00 | ||
| 20260503230012 | 88 | 359 | 4.0 | 15.0 | 0.00 | 0.00 | 0.00 | ||
| 20260503225514 | 88 | 359 | 5.0 | 14.0 | 0.00 | 0.00 | 0.00 | ||
| 20260503225015 | 89 | 353 | 8.0 | 20.0 | 0.00 | 0.00 | 0.00 | ||
| 20260503224506 | 89 | 0 | 12.0 | 25.0 | 0.00 | 0.00 | 0.00 | ||
| 20260503224011 | 89 | 358 | 8.0 | 25.0 | 0.00 | 0.00 | 0.00 | ||
| 20260503223515 | 89 | 359 | 5.0 | 16.0 | 0.00 | 0.00 | 0.00 | ||
| 20260503222522 | 89 | 359 | 5.0 | 18.0 | 0.00 | 0.00 | 0.00 | ||
| 20260503222006 | 89 | 0 | 1.0 | 15.0 | 0.00 | 0.00 | 0.00 | ||
| 20260503221527 | 89 | 355 | 8.0 | 20.0 | 0.00 | 0.00 | 0.00 | ||
| 20260503221019 | 89 | 0 | 5.0 | 21.0 | 0.00 | 0.00 | 0.00 | ||
| 20260503220519 | 90 | 0 | 9.0 | 21.0 | 0.00 | 0.00 | 0.00 | ||
| 20260503220018 | 90 | 355 | 6.0 | 20.0 | 0.00 | 0.00 | 0.00 | ||
| 20260503215518 | 90 | 353 | 8.0 | 20.0 | 0.00 | 0.00 | 0.00 | ||
| 20260503215019 | 90 | 359 | 9.0 | 19.0 | 0.00 | 0.00 | 0.00 | ||
| 20260503214508 | 90 | 359 | 10.0 | 16.0 | 0.00 | 0.00 | 0.00 | ||
| 20260503214009 | 90 | 339 | 7.0 | 16.0 | 0.00 | 0.00 | 0.00 | ||
| 20260503213509 | 90 | 0 | 8.0 | 15.0 | 0.00 | 0.00 | 0.00 | ||
| 20260503213011 | 90 | 351 | 3.0 | 15.0 | 0.00 | 0.00 | 0.00 | ||
| 20260503212511 | 90 | 355 | 4.0 | 12.0 | 0.00 | 0.00 | 0.00 | ||
| 20260503212011 | 90 | 349 | 4.0 | 15.0 | 0.00 | 0.00 | 0.00 | ||
| 20260503211505 | 90 | 355 | 10.0 | 15.0 | 0.00 | 0.00 | 0.00 | ||
| 20260503211008 | 91 | 352 | 8.0 | 14.0 | 0.00 | 0.00 | 0.00 | ||
| 20260503210508 | 91 | 335 | 0.0 | 9.0 | 0.00 | 0.00 | 0.00 | ||
| 20260503210006 | 91 | 0 | 2.0 | 12.0 | 0.00 | 0.00 | 0.00 | ||
| 20260503205508 | 92 | 359 | 6.0 | 12.0 | 0.00 | 0.00 | 0.00 | ||
| 20260503204506 | 92 | 322 | 3.0 | 8.0 | 0.00 | 0.00 | 0.00 | ||
| 20260503204005 | 92 | 165 | 0.0 | 7.0 | 0.00 | 0.00 | 0.00 | ||
| 20260503203505 | 92 | 338 | 0.0 | 4.0 | 0.00 | 0.00 | 0.00 | ||
| 20260503203007 | 91 | 0 | 0.0 | 5.0 | 0.00 | 0.00 | 0.00 | ||
| 20260503202510 | 91 | 0 | 0.0 | 5.0 | 0.00 | 0.00 | 0.00 | ||
| 20260503202030 | 91 | 0 | 0.0 | 5.0 | 0.00 | 0.00 | 0.00 | ||
| 20260503201009 | 91 | 0 | 2.0 | 8.0 | 0.00 | 0.00 | 0.00 | ||
| 20260503200511 | 90 | 359 | 3.0 | 8.0 | 0.00 | 0.00 | 0.00 | ||
| 20260503200015 | 90 | 297 | 1.0 | 10.0 | 0.00 | 0.00 | 0.00 | ||
| 20260503195024 | 90 | 358 | 4.0 | 10.0 | 0.00 | 0.00 | 0.00 | ||
| 20260503194519 | 90 | 0 | 6.0 | 10.0 | 0.00 | 0.00 | 0.00 | ||
| 20260503194020 | 90 | 0 | 0.0 | 14.0 | 0.00 | 0.00 | 0.00 | ||
| 20260503193520 | 90 | 359 | 6.0 | 14.0 | 0.00 | 0.00 | 0.00 | ||
| 20260503193020 | 89 | 0 | 4.0 | 8.0 | 0.00 | 0.00 | 0.00 | ||
| 20260503192520 | 89 | 0 | 4.0 | 8.0 | 0.00 | 0.00 | 0.00 | ||
| 20260503192022 | 88 | 10 | 0.0 | 6.0 | 0.00 | 0.00 | 0.00 | ||
| 20260503191511 | 88 | 0 | 0.0 | 8.0 | 0.00 | 0.00 | 0.00 | ||
| 20260503190511 | 87 | 0 | 0.0 | 8.0 | 0.00 | 0.00 | 0.00 | ||
| 20260503190010 | 88 | 0 | 0.0 | 8.0 | 0.00 | 0.00 | 0.00 | ||
| 20260503185512 | 88 | 354 | 3.0 | 9.0 | 0.00 | 0.00 | 0.00 | ||
| 20260503185013 | 88 | 351 | 4.0 | 9.0 | 0.00 | 0.00 | 0.00 | ||
| 20260503184506 | 88 | 335 | 3.0 | 10.0 | 0.00 | 0.00 | 0.00 | ||
| 20260503184010 | 88 | 0 | 1.0 | 10.0 | 0.00 | 0.00 | 0.00 | ||
| 20260503183512 | 88 | 184 | 1.0 | 10.0 | 0.00 | 0.00 | 0.00 | ||
| 20260503183011 | 87 | 1 | 6.0 | 10.0 | 0.00 | 0.00 | 0.00 | ||
| 20260503182512 | 87 | 348 | 4.0 | 13.0 | 0.00 | 0.00 | 0.00 | ||
| 20260503182013 | 86 | 359 | 2.0 | 17.0 | 0.00 | 0.00 | 0.00 | ||
| 20260503181506 | 86 | 358 | 5.0 | 17.0 | 0.00 | 0.00 | 0.00 | ||
| 20260503181007 | 86 | 0 | 1.0 | 13.0 | 0.00 | 0.00 | 0.00 | ||
| 20260503180012 | 85 | 359 | 7.0 | 11.0 | 0.00 | 0.00 | 0.00 | ||
| 20260503175018 | 85 | 0 | 6.0 | 10.0 | 0.00 | 0.00 | 0.00 | ||
| 20260503174509 | 84 | 354 | 3.0 | 11.0 | 0.00 | 0.00 | 0.00 | ||
| 20260503173512 | 84 | 323 | 4.0 | 11.0 | 0.00 | 0.00 | 0.00 | ||
| 20260503173013 | 83 | 353 | 3.0 | 9.0 | 0.00 | 0.00 | 0.00 | ||
| 20260503172018 | 82 | 330 | 1.0 | 9.0 | 0.00 | 0.00 | 0.00 | ||
| 20260503171512 | 82 | 357 | 4.0 | 9.0 | 0.00 | 0.00 | 0.00 | ||
| 20260503171017 | 81 | 350 | 1.0 | 5.0 | 0.00 | 0.00 | 0.00 | ||
| 20260503170518 | 81 | 355 | 1.0 | 4.0 | 0.00 | 0.00 | 0.00 | ||
| 20260503151002 | 69 | 0 | 0.0 | 1.0 | 0.00 | 0.00 | 0.00 | ||
| 20260503150502 | 68 | 0 | 0.0 | 0.0 | 0.00 | 0.00 | 0.00 | ||
| 20260503131008 | 62 | 359 | 0.0 | 2.0 | 0.00 | 0.00 | 0.00 | ||
| 20260503130513 | 62 | 0 | 0.0 | 2.0 | 0.00 | 0.00 | 0.00 | ||
| 20260503110515 | 63 | 0 | 0.0 | 0.0 | 0.00 | 0.00 | 0.00 | ||
| 20260503081009 | 68 | 358 | 0.0 | 0.0 | 0.00 | 0.00 | 0.00 | ||
| 20260503072520 | 68 | 0 | 0.0 | 0.0 | 0.00 | 0.00 | 0.00 | ||
| 20260503072022 | 69 | 0 | 0.0 | 0.0 | 0.00 | 0.00 | 0.00 | ||
| 20260503071512 | 69 | 0 | 0.0 | 0.0 | 0.00 | 0.00 | 0.00 | ||
| 20260503070515 | 70 | 0 | 0.0 | 0.0 | 0.00 | 0.00 | 0.00 | ||
| 20260503055033 | 73 | 353 | 0.0 | 2.0 | 0.00 | 0.00 | 0.00 | ||
| 20260503054503 | 73 | 348 | 0.0 | 4.0 | 0.00 | 0.00 | 0.00 | ||
| 20260503053009 | 73 | 358 | 0.0 | 4.0 | 0.00 | 0.00 | 0.00 | ||
| 20260503052510 | 73 | 358 | 0.0 | 5.0 | 0.00 | 0.00 | 0.00 | ||
| 20260503052013 | 74 | 0 | 0.0 | 5.0 | 0.00 | 0.00 | 0.00 | ||
| 20260503051505 | 74 | 0 | 1.0 | 7.0 | 0.00 | 0.00 | 0.00 | ||
| 20260503051007 | 74 | 0 | 2.0 | 7.0 | 0.00 | 0.00 | 0.00 | ||
| 20260503050511 | 74 | 358 | 0.0 | 2.0 | 0.00 | 0.00 | 0.00 | ||
| 20260503045513 | 74 | 0 | 0.0 | 1.0 | 0.00 | 0.00 | 0.00 | ||
| 20260503045016 | 74 | 336 | 0.0 | 1.0 | 0.00 | 0.00 | 0.00 | ||
| 20260503044508 | 74 | 191 | 0.0 | 0.0 | 0.00 | 0.00 | 0.00 | ||
| 20260503044008 | 74 | 189 | 0.0 | 0.0 | 0.00 | 0.00 | 0.00 | ||
| 20260503043508 | 74 | 202 | 0.0 | 0.0 | 0.00 | 0.00 | 0.00 | ||
| 20260503043009 | 74 | 323 | 0.0 | 0.0 | 0.00 | 0.00 | 0.00 | ||
| 20260503042510 | 74 | 353 | 0.0 | 1.0 | 0.00 | 0.00 | 0.00 | ||
| 20260503042012 | 75 | 0 | 0.0 | 1.0 | 0.00 | 0.00 | 0.00 |